Location: Ammerl�gen
(47.2167°N, 9.6000°E)
Time: 17:01:47
(UTC+00:00)

Cosmos 2278 Rocket - Pass Details

Date: 21 April 2021
Orbit: 842 x 844 km, 71.0° (Epoch: 06 May)

Event Time Altitude Azimuth Distance (km) Brightness Sun altitude
Exits shadow 23:33:52 19° 87° (E) 1,908 4.1 -30.5°
Drops below altitude 10° 23:36:53 10° 55° (NE) 2,470 5.0 -30.5°
Sets 23:39:57 0° 39° (NE) 3,410 6.1 -30.4°
